GSAT-15

Last updated on Sun Aug 31 2025 00:02:48 GMT+0000 (Coordinated Universal Time)

1 41028U 15065A 25242.11655398 -.00000254 00000+0 00000+0 0 9995 2 41028 0.0960 265.9868 0002711 214.5802 353.4340 1.00272647 35884
UTC large
Height (km)
Speed (km/s)
/
Latitude / Longitude
Inclination (degrees)
Orbital Period (minutes)
Azimuth
Elevation
Range (km)
Doppler Factor

Next 0 passes for location: London (51.5072 / 0.1276)

Sorry there are no passes over London.